Location: Colonia Mina de C?rbuni
(46.1667°N, 22.7167°E)
Time: 18:47:17
(UTC+00:00)

Cosmos 2058 Rocket - Pass Details

Date: 04 February 2023
Orbit: 610 x 637 km, 82.5° (Epoch: 29 March)

Event Time Altitude Azimuth Distance (km) Brightness Sun altitude
Rises 16:42:18 0° 357° (N) 2,899 6.4 -11.5°
Reaches altitude 10° 16:44:39 10° 5° (N) 1,993 5.5 -11.9°
Maximum altitude 16:48:48 39° 75° (ENE) 931 3.5 -12.6°
Drops below altitude 10° 16:52:58 10° 145° (SE) 1,994 5.4 -13.3°
Sets 16:55:19 0° 153° (SSE) 2,901 6.3 -13.7°
